Meteo orario Gogolevka

Oggi, 19 Aprile, Lunedi

Tempo Temperatura Precipitazioni Vento Pressione Umidità
00:00 +7°C° 0 mm 2 m/s 745 mm Hg 63%
01:00 +6°C° 0 mm 2 m/s 745 mm Hg 65%
02:00 +6°C° 0 mm 2 m/s 745 mm Hg 67%
03:00 +7°C° 0 mm 1 m/s 745 mm Hg 69%
04:00 +7°C° 0 mm 1 m/s 745 mm Hg 69%
05:00 +7°C° 0 mm 1 m/s 745 mm Hg 69%
06:00 +7°C° 0 mm 1 m/s 745 mm Hg 69%
07:00 +8°C° 0 mm 2 m/s 745 mm Hg 61%
08:00 +10°C° 0 mm 2 m/s 744 mm Hg 54%
09:00 +12°C° 0 mm 3 m/s 744 mm Hg 46%
10:00 +13°C° 0 mm 4 m/s 744 mm Hg 41%
11:00 +15°C° 0 mm 5 m/s 743 mm Hg 35%
12:00 +16°C° 0 mm 6 m/s 743 mm Hg 30%
13:00 +17°C° 0 mm 6 m/s 742 mm Hg 27%
14:00 +17°C° 0 mm 6 m/s 742 mm Hg 24%
15:00 +18°C° 0 mm 7 m/s 742 mm Hg 22%
16:00 +17°C° 0 mm 6 m/s 742 mm Hg 24%
17:00 +17°C° 0 mm 5 m/s 742 mm Hg 26%
18:00 +17°C° 0 mm 5 m/s 742 mm Hg 28%
19:00 +15°C° 0 mm 4 m/s 742 mm Hg 32%
20:00 +14°C° 0 mm 4 m/s 743 mm Hg 36%
21:00 +12°C° 0 mm 3 m/s 743 mm Hg 41%
22:00 +11°C° 0 mm 4 m/s 744 mm Hg 42%
23:00 +8°C° 0 mm 6 m/s 745 mm Hg 43%

Domani, 20 Aprile, Martedi

Tempo Temperatura Precipitazioni Vento Pressione Umidità
00:00 +6°C° 0 mm 7 m/s 746 mm Hg 45%
01:00 +5°C° 0 mm 7 m/s 747 mm Hg 41%
02:00 +3°C° 0 mm 7 m/s 748 mm Hg 37%
03:00 +2°C° 0 mm 7 m/s 749 mm Hg 34%
04:00 0°C° 0 mm 7 m/s 750 mm Hg 33%
05:00 -1°C° 0 mm 7 m/s 750 mm Hg 32%
06:00 -2°C° 0 mm 7 m/s 751 mm Hg 31%
07:00 0°C° 0 mm 8 m/s 751 mm Hg 28%
08:00 +1°C° 0 mm 9 m/s 751 mm Hg 25%
09:00 +2°C° 0 mm 10 m/s 751 mm Hg 22%
10:00 +3°C° 0 mm 10 m/s 751 mm Hg 20%
11:00 +5°C° 0 mm 10 m/s 751 mm Hg 18%
12:00 +6°C° 0 mm 11 m/s 751 mm Hg 16%
13:00 +7°C° 0 mm 10 m/s 751 mm Hg 15%
14:00 +7°C° 0 mm 10 m/s 751 mm Hg 14%
15:00 +8°C° 0 mm 10 m/s 751 mm Hg 14%
16:00 +7°C° 0 mm 9 m/s 752 mm Hg 16%
17:00 +8°C° 0 mm 7 m/s 752 mm Hg 18%
18:00 +7°C° 0 mm 6 m/s 753 mm Hg 20%
19:00 +6°C° 0 mm 5 m/s 754 mm Hg 22%
20:00 +5°C° 0 mm 3 m/s 754 mm Hg 24%
21:00 +5°C° 0 mm 2 m/s 755 mm Hg 26%
22:00 +4°C° 0 mm 2 m/s 756 mm Hg 27%
23:00 +3°C° 0 mm 2 m/s 756 mm Hg 29%

Dopodomani, 21 Aprile, Mercoledi

Tempo Temperatura Precipitazioni Vento Pressione Umidità
00:00 +3°C° 0 mm 2 m/s 756 mm Hg 30%
01:00 +2°C° 0 mm 2 m/s 757 mm Hg 31%
02:00 +2°C° 0 mm 2 m/s 757 mm Hg 33%
03:00 +2°C° 0 mm 2 m/s 757 mm Hg 34%
04:00 +2°C° 0 mm 2 m/s 757 mm Hg 35%
05:00 +2°C° 0 mm 2 m/s 758 mm Hg 35%
06:00 +3°C° 0 mm 1 m/s 758 mm Hg 36%
07:00 +5°C° 0 mm 2 m/s 758 mm Hg 31%
08:00 +8°C° 0 mm 2 m/s 758 mm Hg 27%
09:00 +11°C° 0 mm 3 m/s 758 mm Hg 22%
10:00 +13°C° 0 mm 3 m/s 758 mm Hg 21%
11:00 +16°C° 0 mm 3 m/s 758 mm Hg 20%
12:00 +18°C° 0 mm 3 m/s 758 mm Hg 18%
13:00 +19°C° 0 mm 3 m/s 757 mm Hg 18%
14:00 +20°C° 0 mm 2 m/s 757 mm Hg 18%
15:00 +21°C° 0 mm 2 m/s 757 mm Hg 17%
16:00 +20°C° 0 mm 2 m/s 757 mm Hg 20%
17:00 +19°C° 0 mm 2 m/s 757 mm Hg 22%
18:00 +20°C° 0 mm 1 m/s 756 mm Hg 25%
19:00 +18°C° 0 mm 1 m/s 757 mm Hg 27%
20:00 +15°C° 0 mm 1 m/s 757 mm Hg 30%
21:00 +14°C° 0 mm 1 m/s 758 mm Hg 33%
22:00 +13°C° 0 mm 1 m/s 758 mm Hg 34%
23:00 +12°C° 0 mm 1 m/s 758 mm Hg 36%

22 Aprile, Giovedi

Tempo Temperatura Precipitazioni Vento Pressione Umidità
00:00 +11°C° 0 mm 1 m/s 758 mm Hg 38%
01:00 +11°C° 0 mm 1 m/s 758 mm Hg 40%
02:00 +10°C° 0 mm 1 m/s 758 mm Hg 42%
03:00 +10°C° 0 mm 1 m/s 758 mm Hg 45%
04:00 +10°C° 0 mm 1 m/s 758 mm Hg 45%
05:00 +10°C° 0 mm 1 m/s 759 mm Hg 46%
06:00 +9°C° 0 mm 1 m/s 759 mm Hg 47%
07:00 +12°C° 0 mm 1 m/s 759 mm Hg 41%
08:00 +15°C° 0 mm 1 m/s 759 mm Hg 35%
09:00 +18°C° 0 mm 1 m/s 759 mm Hg 29%
10:00 +20°C° 0 mm 1 m/s 759 mm Hg 26%
11:00 +21°C° 0 mm 2 m/s 759 mm Hg 24%
12:00 +24°C° 0 mm 2 m/s 759 mm Hg 21%
13:00 +24°C° 0 mm 2 m/s 758 mm Hg 22%
14:00 +25°C° 0 mm 2 m/s 758 mm Hg 22%
15:00 +25°C° 0 mm 2 m/s 757 mm Hg 22%
16:00 +24°C° 0 mm 2 m/s 757 mm Hg 26%
17:00 +23°C° 0 mm 2 m/s 758 mm Hg 29%
18:00 +21°C° 0 mm 2 m/s 758 mm Hg 33%
19:00 +20°C° 0 mm 2 m/s 758 mm Hg 38%
20:00 +18°C° 0 mm 3 m/s 759 mm Hg 43%
21:00 +16°C° 0 mm 3 m/s 759 mm Hg 48%
22:00 +14°C° 0 mm 3 m/s 760 mm Hg 47%
23:00 +13°C° 0 mm 3 m/s 760 mm Hg 47%

23 Aprile, Venerdi

Tempo Temperatura Precipitazioni Vento Pressione Umidità
00:00 +12°C° 0 mm 3 m/s 761 mm Hg 47%
01:00 +13°C° 0 mm 2 m/s 761 mm Hg 48%
02:00 +12°C° 0 mm 2 m/s 761 mm Hg 49%
03:00 +12°C° 0 mm 2 m/s 761 mm Hg 50%
04:00 +12°C° 0 mm 2 m/s 761 mm Hg 50%
05:00 +10°C° 0 mm 2 m/s 761 mm Hg 51%
06:00 +10°C° 0 mm 2 m/s 762 mm Hg 51%
07:00 +13°C° 0 mm 2 m/s 762 mm Hg 48%
08:00 +13°C° 0 mm 3 m/s 762 mm Hg 44%
09:00 +14°C° 0 mm 3 m/s 762 mm Hg 41%
10:00 +16°C° 0 mm 3 m/s 761 mm Hg 39%
11:00 +18°C° 0 mm 3 m/s 761 mm Hg 38%
12:00 +19°C° 0 mm 3 m/s 761 mm Hg 36%
13:00 +19°C° 0 mm 3 m/s 761 mm Hg 37%
14:00 +20°C° 0 mm 4 m/s 761 mm Hg 38%
15:00 +20°C° 0 mm 4 m/s 760 mm Hg 40%
16:00 +19°C° 0 mm 3 m/s 760 mm Hg 41%
17:00 +19°C° 0 mm 3 m/s 760 mm Hg 43%
18:00 +18°C° 0 mm 3 m/s 760 mm Hg 45%
19:00 +17°C° 0 mm 3 m/s 760 mm Hg 48%
20:00 +16°C° 0 mm 3 m/s 760 mm Hg 52%
21:00 +13°C° 0 mm 3 m/s 760 mm Hg 56%
22:00 +13°C° 0 mm 3 m/s 760 mm Hg 60%
23:00 +13°C° 0 mm 2 m/s 759 mm Hg 65%

24 Aprile, Sabato

Tempo Temperatura Precipitazioni Vento Pressione Umidità
00:00 +13°C° 0 mm 2 m/s 759 mm Hg 70%
01:00 +12°C° 0 mm 2 m/s 759 mm Hg 69%
02:00 +12°C° 0 mm 2 m/s 759 mm Hg 68%
03:00 +11°C° 0 mm 3 m/s 759 mm Hg 67%
04:00 +11°C° 0 mm 3 m/s 759 mm Hg 61%
05:00 +10°C° 0 mm 3 m/s 759 mm Hg 55%
06:00 +10°C° 0 mm 3 m/s 759 mm Hg 50%
07:00 +9°C° 0 mm 3 m/s 759 mm Hg 50%
08:00 +9°C° 0 mm 3 m/s 759 mm Hg 50%
09:00 +7°C° 0 mm 4 m/s 759 mm Hg 51%
10:00 +7°C° 0.5 mm 4 m/s 759 mm Hg 59%
11:00 +7°C° 0.5 mm 3 m/s 759 mm Hg 68%
12:00 +5°C° 0.5 mm 3 m/s 759 mm Hg 77%
13:00 +5°C° 0.4 mm 3 m/s 758 mm Hg 66%
14:00 +7°C° 0.4 mm 3 m/s 758 mm Hg 56%
15:00 +6°C° 0.4 mm 4 m/s 758 mm Hg 46%
16:00 +7°C° 0.1 mm 3 m/s 758 mm Hg 46%
17:00 +5°C° 0.1 mm 3 m/s 757 mm Hg 46%
18:00 +6°C° 0.1 mm 2 m/s 757 mm Hg 46%
19:00 +6°C° 0 mm 2 m/s 757 mm Hg 47%
20:00 +5°C° 0 mm 2 m/s 757 mm Hg 48%
21:00 +4°C° 0 mm 2 m/s 757 mm Hg 49%
22:00 +4°C° 0 mm 2 m/s 757 mm Hg 51%
23:00 +3°C° 0 mm 3 m/s 757 mm Hg 53%
Mostrare altro

Abbiamo bisogno del tuo consenso

Meteoprog e i nostri fornitori di servizi possono memorizzare e accedere a dati personali come cookie, identificatori di dispositivi o altre tecnologie simili sul tuo dispositivo e possono elaborare tali dati per personalizzare i contenuti e gli annunci, nonché fornire funzionalità dei social media e analizzarne il traffico.

  • Archiviare e/o accedere alle informazioni sul tuo dispositivo

    Cookie, identificatori di dispositivi o altre informazioni possono essere memorizzati o resi accessibili sul tuo dispositivo per le finalità sopra indicate.

  • Annunci e contenuti personalizzati, misurazione di annunci e contenuti, approfondimenti sul pubblico e sviluppo di prodotti

    Gli annunci e i contenuti possono essere personalizzati in base a un profilo. È possibile aggiungere più dati per personalizzare meglio annunci e contenuti. È possibile misurare il rendimento degli annunci e dei contenuti. È possibile ricavare informazioni sul pubblico che ha visto gli annunci e i contenuti. Tali dati possono essere utilizzati per sviluppare o migliorare l'esperienza, i sistemi e il software dell'utente.

Cliccando su “Accetto”, acconsenti all'uso di cookie, identificatori di dispositivo, web beacon o altre tecnologie simili. Puoi modificare le impostazioni nel browser del tuo dispositivo.

Per determinati scopi, è possibile fare affidamento su interessi legali, piuttosto che sul consenso. Puoi approfondire questo argomento consultando la nostra Informativa sulla privacy e sui cookie.